Вернуться в каталог

STARLINK-2699

АктивенСвязьVLEO
NORAD 48433·PAYLOAD·🇺🇸 United States

Запущен May 9, 2021 с Cape Canaveral Space Force Station

Loading…

Ближайшие Пролёты (ближайшие 24 часа)

TLE

СвежийSource: CelesTrak SupGP

Эпоха: Sep 14, 2026, 21:38 UTC

1 48433C 21040F   26257.90187500 -.00030775  00000+0 -98963-3 0  2579
2 48433  53.1612 352.0697 0001161  86.5691 123.1748 15.31717929    10

Отслеживайте STARLINK-2699 в реальном времени с AllMySat

Download on the App Store